Regional Weather Roundup
Issued by NWS Cleveland, OH

Home | Current Version | Previous Version | Graphics & Text | Print | Product List | Glossary On
Versions: 1 2 3 4 5 6 7 8 9 10 11 12 13 14 15 16 17 18 19 20 21 22 23 24 25 26 27 28 29 30 31 32 33 34 35 36 37 38 39 40 41 42 43 44 45 46 47 48 49 50
000
ASUS41 KCLE 222310
RWRCLE
OHIO REGIONAL WEATHER ROUNDUP
NATIONAL WEATHER SERVICE CLEVELAND, OH
600 PM EST SUN JAN 22 2017

NOTE: "FAIR" INDICATES FEW OR NO CLOUDS BELOW 12,000 FEET WITH NO
SIGNIFICANT WEATHER AND/OR OBSTRUCTIONS TO VISIBILITY.

OHZ001>008-015>018-024>027-034-035-043-044-230000-
   NORTHWEST OHIO

CITY           SKY/WX    TMP DP  RH WIND       PRES   REMARKS
DEFIANCE       CLOUDY    53  47  79 NE9       29.56S
FINDLAY        CLOUDY    52  46  80 NE13      29.55R
TOLEDO EXPRESS CLOUDY    47  47 100 E7        29.59R FOG
TOLEDO EXEC    FOG       46  46 100 NE9       29.60S VSB 1/4
LIMA           PTCLDY    56  51  84 NE8       29.52F
$$

OHZ009>014-019>023-028>033-038-089-230000-
   NORTHEAST OHIO

CITY           SKY/WX    TMP DP  RH WIND       PRES   REMARKS
CLE-HOPKINS    CLOUDY    46  40  79 N5        29.59S
CLE-LAKEFRONT  MOCLDY    39  37  92 NE12      29.57S
CUY CO. ARPT   MOCLDY    54  50  87 NE7       29.58S
LORAIN-ELYRIA  MOCLDY    48  44  86 NE7       29.58R
ASHTABULA      CLOUDY    48  44  86 NE5       29.60S
AKRON-CANTON   MOCLDY    53  46  77 NE8       29.56R
WOOSTER        PTCLDY    54  47  77 NE8       29.56R
MANSFIELD      CLOUDY    56  49  77 NE6       29.54S
YOUNGSTOWN     MOCLDY    53  47  79 NE6       29.58S
$$

OHZ042-051>053-060>062-070>072-077>081-230000-
  SOUTHWEST OHIO

CITY           SKY/WX    TMP DP  RH WIND       PRES   REMARKS
CINC-COVINGTON MOCLDY    60  49  66 NE14      29.42F
CINC-LUNKEN    PTCLDY    60  50  69 NE10      29.42F
HAMILTON       MOCLDY    60  48  64 NE9       29.43F
DAYTON         MOCLDY    56  46  69 N12       29.49S
WRIGHT-PAT AFB CLOUDY    57  46  66 N10       29.47S
DAYTON GENERAL CLOUDY    58  47  66 NE10      29.45S
WILMINGTON     CLOUDY    57  49  74 NE14      29.44F
$$

OHZ036-037-039>041-045>050-054>059-063>069-073>076-082>088-230000-
  CENTRAL AND SOUTHEAST OHIO

CITY           SKY/WX    TMP DP  RH WIND       PRES   REMARKS
COLUMBUS       CLOUDY    61  47  59 NE13      29.49R
OSU AIRPORT    CLOUDY    59  49  69 NE12      29.49R
BOLTON FIELD   PTCLDY    59  48  67 NE7       29.49R
RICKENBACK AFB   N/A     56  48  75 NE8       29.48R
NEWARK         PTCLDY    60  48  64 VRB3      29.50R
MARION         CLEAR     56  47  71 NE10      29.53S
LANCASTER      CLOUDY    58  49  72 NE9       29.48R
ZANESVILLE     PTCLDY    61  45  55 NE8       29.51R
NEW PHILLY     NOT AVBL
$$




USA.gov is the U.S. government's official web portal to all federal, state and local government web resources and services.